Location: Julian California
(33.0790°N, 116.6010°W)
Time: 02:35:52
(UTC-08:00)

ATLAS CENTAUR R/B - Pass Details

Date: 12 July 2018
Orbit: 451 x 700 km, 64.7° (Epoch: 16 November)

Event Time Altitude Azimuth Distance (km) Brightness Sun altitude
Rises 22:04:05 0° 228° (SW) 2,486 4.7 -22.0°
Reaches altitude 10° 22:06:17 10° 238° (WSW) 1,639 3.8 -22.3°
Maximum altitude 22:09:36 33° 304° (NW) 851 2.8 -22.8°
Drops below altitude 10° 22:13:09 10° 10° (N) 1,757 4.4 -23.3°
Sets 22:15:35 0° 20° (NNE) 2,696 5.3 -23.6°
